Weather Roundup
Issued by NWS Chicago, IL

Home | Current Version | Previous Version | Text Only | Print | Product List | Glossary On
Versions: 1 2 3 4 5 6 7 8 9 10 11 12 13 14 15 16 17 18 19 20 21 22 23 24 25 26 27 28 29 30 31 32 33 34 35 36 37 38 39 40 41 42 43 44 45 46 47 48 49 50
000
NZUS59 KLOT 220010
HRRLOT

CHICAGO AREA WEATHER ROUNDUP
NATIONAL WEATHER SERVICE CHICAGO/ROMEOVILLE IL
600 PM CST FRI NOV 21 2014

NOTE: "FAIR" INDICATES FEW OR NO CLOUDS BELOW 12,000 FEET WITH NO
SIGNIFICANT WEATHER AND/OR OBSTRUCTIONS TO VISIBILITY.

* THESE STATIONS ARE NOT UNDER NWS QUALITY CONTROL. THEY ALSO MAY NOT
  REPORT WEATHER SUCH AS PRECIPITATION OR FOG.

ILZ005-006-012>014-019>023-220100-
NORTHEAST ILLINOIS

CITY           SKY/WX    TMP DP  RH WIND       PRES   REMARKS
OHARE          PTCLDY    29   5  36 S10       30.30F WCI  20
6HR MIN TEMP:  28; 6HR MAX TEMP:  33;

MIDWAY         PTCLDY    32   5  32 S8        30.32F WCI  25
6HR MIN TEMP:  31; 6HR MAX TEMP:  35;

AURORA         CLEAR     28   4  35 SE9       30.30F WCI  19
6HR MIN TEMP:  28; 6HR MAX TEMP:  34;

LANSING*       CLEAR     28   9  43 S10       30.34S WCI  19
JOLIET*        CLEAR     29   6  38 SE7       30.31F WCI  22
WAUKEGAN       CLEAR     28   2  32 S9        30.28F WCI  19
6HR MIN TEMP:  28; 6HR MAX TEMP:  32;

DUPAGE AIRPORT CLEAR     28   5  37 S8        30.29F WCI  20
6HR MIN TEMP:  26; 6HR MAX TEMP:  33;

WHEELING       CLEAR     30   4  33 S13       30.32S WCI  20
6HR MIN TEMP:  28; 6HR MAX TEMP:  33;

KANKAKEE*      CLEAR     28  12  50 SE9       30.34F WCI  20
MORRIS*        CLEAR     27   8  43 SE8       30.30F WCI  19
LEWIS AIRPORT* CLEAR     28   6  39 S9        30.31F WCI  19
NORTHERLY IS     N/A     31   5  33 S12         N/A  WCI  22
$$

WIZ051-052-058>065-066-070>072-220100-
SOUTHEAST WISCONSIN

CITY           SKY/WX    TMP DP  RH WIND       PRES   REMARKS
MILWAUKEE      PTCLDY    28   3  34 S7        30.26F WCI  21
6HR MIN TEMP:  27; 6HR MAX TEMP:  32;

KENOSHA*       CLEAR     25   4  40 S7        30.27F WCI  17
RACINE*        CLEAR     28   3  34 S7        30.29F WCI  21
BURLINGTON     CLEAR     24   4  42 S7        30.26F WCI  16
WAUKESHA       CLEAR     25   3  39 S5        30.25F WCI  19
WEST BEND        N/A     27   3  36 S8        30.22F WCI  18
$$

INZ001>003-010>013-019-020-220100-
NORTHWEST INDIANA

CITY           SKY/WX    TMP DP  RH WIND       PRES   REMARKS
GARY*          PTCLDY    32   9  37 S8        30.35F WCI  25
MICHIGAN CITY* NOT AVBL
RENSSELAER*    NOT AVBL
VALPARAISO     CLEAR     25  10  53 SE9       30.35F WCI  15
$$

LMZ740>746-220100-
SOUTHERN LAKE MICHIGAN

STATION/POSITION TIME  SKY/WX   TEMP WIND        PRES    VSBY
                                AIR  DIR/SP/G
                 (UTC)          (F)  (DEG/KT/KT) (MB)    (MI)
HARRISON CRIB    0000            32  180/ 21/ 25   N/A
BURNHAM HARBOR   0000            31  160/ 11/ 13   N/A
CALUMET HARBOR   0000            31  160/  8/ 14 1025.7F
BURNS HARBOR     NOT AVBL
MICHIGAN CITY    0000            29  140/ 10/ 15   N/A
$$

ABBREVIATIONS USED IN REMARKS
   TC - TEMPERATURE IN CELSIUS
  WCI - WIND CHILL INDEX
   HX - HEAT INDEX
  VSB - VISIBILITY
$$



USA.gov is the U.S. government's official web portal to all federal, state and local government web resources and services.